20050703,000013,358319,32.112935,-119.018522,15.484,33.397,0.536,0.603
20050703,000044,358350,32.112257,-119.019952,15.532,33.366,0.519,0.577
20050703,000113,358378,32.111553,-119.021377,15.565,33.376,0.525,0.585
20050703,000143,358409,32.110830,-119.022797,15.577,33.383,0.508,0.559
20050703,000213,358439,32.110115,-119.024220,15.595,33.391,0.514,0.568
20050703,000243,358469,32.109432,-119.025598,15.630,33.395,0.486,0.526
20050703,000313,358499,32.108683,-119.027070,15.654,33.393,0.519,0.576
20050703,000343,358528,32.107973,-119.028498,15.673,33.395,0.514,0.568
20050703,000413,358558,32.107245,-119.029923,15.691,33.383,0.519,0.577
20050703,000443,358589,32.106528,-119.031352,15.690,33.388,0.530,0.595
20050703,000513,358619,32.105825,-119.032743,15.701,33.371,0.530,0.592
20050703,000543,358649,32.105065,-119.034215,15.722,33.355,0.530,0.590
20050703,000613,358679,32.104332,-119.035655,15.747,33.350,0.536,0.599
20050703,000643,358708,32.103587,-119.037083,15.765,33.347,0.530,0.591
20050703,000713,358739,32.102865,-119.038515,15.784,33.348,0.536,0.600
20050703,000743,358769,32.102167,-119.039900,15.792,33.352,0.536,0.600
20050703,000813,358799,32.101413,-119.041370,15.799,33.350,0.525,0.584
20050703,000843,358829,32.100687,-119.042785,15.819,33.344,0.530,0.594
20050703,000913,358858,32.099972,-119.044203,15.844,33.340,0.503,0.552
20050703,000943,358888,32.099255,-119.045622,15.861,33.344,0.486,0.527
20050703,001013,358919,32.098530,-119.047038,15.877,33.342,0.481,0.520
20050703,001043,358949,32.097798,-119.048463,15.891,33.343,0.497,0.546
20050703,001113,358979,32.097075,-119.049882,15.901,33.341,0.525,0.590
20050703,001144,359010,32.096355,-119.051307,15.892,33.350,0.519,0.581
20050703,001213,359038,32.095633,-119.052730,15.853,33.362,0.530,0.598
20050703,001243,359068,32.094940,-119.054173,15.859,33.340,0.541,0.613
20050703,001313,359099,32.094263,-119.055635,15.870,33.333,0.558,0.637
20050703,001343,359129,32.093608,-119.057050,15.890,33.325,0.541,0.608
20050703,001413,359159,32.092888,-119.058563,15.917,33.319,0.569,0.648
20050703,001443,359189,32.092192,-119.060020,15.924,33.329,0.541,0.602
20050703,001513,359218,32.091497,-119.061480,15.922,33.333,0.613,0.715
20050703,001543,359249,32.090815,-119.062952,15.923,33.330,0.618,0.720
20050703,001613,359279,32.090125,-119.064410,15.920,33.333,0.651,0.770
20050703,001643,359309,32.089473,-119.065810,15.922,33.328,0.656,0.775
20050703,001713,359339,32.088783,-119.067315,15.926,33.325,0.684,0.819
20050703,001744,359370,32.088115,-119.068770,15.946,33.315,0.689,0.826
20050703,001813,359398,32.087453,-119.070225,15.978,33.305,0.700,0.840
20050703,001843,359429,32.086802,-119.071685,16.017,33.305,0.700,0.839
20050703,001914,359459,32.086157,-119.073155,15.995,33.326,0.689,0.824
20050703,001943,359489,32.085513,-119.074615,15.982,33.289,0.678,0.804
20050703,002013,359519,32.084870,-119.076080,15.968,33.294,0.673,0.799
20050703,002043,359548,32.084248,-119.077570,15.938,33.292,0.689,0.829
20050703,002113,359578,32.083632,-119.079062,15.965,33.259,0.700,0.848
20050703,002144,359609,32.083042,-119.080553,16.014,33.239,0.706,0.859
20050703,002213,359639,32.082437,-119.082018,16.051,33.239,0.673,0.804
20050703,002243,359669,32.081848,-119.083487,16.079,33.245,0.624,0.722
20050703,002313,359698,32.081262,-119.084970,16.089,33.258,0.580,0.652
20050703,002343,359728,32.080658,-119.086448,16.016,33.318,0.596,0.680
20050703,002413,359759,32.080063,-119.087933,15.924,33.336,0.651,0.769
20050703,002443,359789,32.079463,-119.089423,15.892,33.311,0.629,0.731
20050703,002513,359819,32.078865,-119.090903,15.882,33.291,0.635,0.741
20050703,002543,359849,32.078287,-119.092403,15.875,33.283,0.646,0.760
20050703,002614,359880,32.077700,-119.093890,15.881,33.271,0.635,0.740
20050703,002643,359908,32.077132,-119.095362,15.890,33.268,0.618,0.711
20050703,002713,359939,32.076552,-119.096783,15.904,33.269,0.569,0.631
20050703,002743,359969,32.075937,-119.098313,15.906,33.274,0.596,0.674
20050703,002813,359999,32.075352,-119.099795,15.931,33.260,0.585,0.657
20050703,002843,360029,32.074793,-119.101223,15.960,33.252,0.552,0.608
20050703,002914,360060,32.074167,-119.102743,15.978,33.256,0.552,0.607
20050703,002943,360089,32.073587,-119.104237,15.994,33.257,0.574,0.641
20050703,003013,360119,32.072985,-119.105722,15.992,33.265,0.596,0.676
20050703,003043,360149,32.072385,-119.107198,15.994,33.265,0.574,0.640
20050703,003114,360180,32.071798,-119.108682,16.010,33.256,0.541,0.589
20050703,003143,360208,32.071207,-119.110162,16.012,33.263,0.569,0.632
20050703,003213,360238,32.070633,-119.111648,16.003,33.263,0.574,0.641
20050703,003243,360269,32.070045,-119.113112,16.013,33.253,0.563,0.623
20050703,003313,360299,32.069458,-119.114587,16.012,33.253,0.552,0.607
20050703,003343,360329,32.068870,-119.116070,16.018,33.243,0.558,0.614
20050703,003413,360359,32.068288,-119.117563,16.044,33.238,0.536,0.578
20050703,003443,360388,32.067695,-119.119053,16.048,33.244,0.530,0.569
20050703,003513,360418,32.067113,-119.120553,16.053,33.239,0.530,0.570
20050703,003543,360449,32.066510,-119.122052,16.062,33.238,0.530,0.570
20050703,003614,360479,32.065928,-119.123547,16.070,33.235,0.525,0.561
20050703,003643,360509,32.065353,-119.125035,16.086,33.231,0.536,0.578
20050703,003713,360539,32.064768,-119.126527,16.092,33.236,0.530,0.569
20050703,003744,360570,32.064190,-119.128018,16.094,33.239,0.530,0.570
20050703,003813,360599,32.063622,-119.129507,16.100,33.235,0.525,0.562
20050703,003843,360629,32.063057,-119.130992,16.119,33.229,0.514,0.546
20050703,003913,360659,32.062483,-119.132482,16.132,33.229,0.503,0.527
20050703,003943,360689,32.061893,-119.133980,16.148,33.224,0.492,0.510
20050703,004013,360718,32.061318,-119.135487,16.169,33.221,0.481,0.494
20050703,004043,360748,32.060738,-119.136992,16.192,33.219,0.486,0.503
20050703,004113,360779,32.060172,-119.138503,16.210,33.222,0.475,0.485
20050703,004144,360809,32.059590,-119.140002,16.214,33.232,0.486,0.501
20050703,004213,360839,32.059008,-119.141503,16.192,33.250,0.486,0.500
20050703,004243,360869,32.058422,-119.143017,16.173,33.248,0.453,0.454
20050703,004313,360898,32.057832,-119.144527,16.176,33.237,0.475,0.486
20050703,004343,360928,32.057262,-119.146035,16.171,33.242,0.519,0.550
20050703,004413,360959,32.056668,-119.147530,16.162,33.243,0.519,0.549
20050703,004443,360989,32.056095,-119.149037,16.160,33.239,0.525,0.558
20050703,004513,361019,32.055533,-119.150542,16.158,33.237,0.503,0.524
20050703,004543,361048,32.054968,-119.152040,16.159,33.236,0.519,0.548
20050703,004613,361078,32.054403,-119.153537,16.159,33.236,0.514,0.540
20050703,004644,361110,32.053837,-119.155018,16.151,33.239,0.514,0.541
20050703,004713,361139,32.053283,-119.156492,16.133,33.245,0.525,0.558
20050703,004743,361169,32.052723,-119.157958,16.112,33.253,0.541,0.582
20050703,004813,361199,32.052170,-119.159420,16.100,33.249,0.552,0.596
20050703,004844,361230,32.051602,-119.160890,16.092,33.251,0.547,0.585
20050703,004914,361260,32.051045,-119.162355,16.066,33.268,0.569,0.617
20050703,004943,361289,32.050467,-119.163828,16.021,33.284,0.618,0.693
20050703,005014,361319,32.049885,-119.165300,16.006,33.276,0.624,0.702
20050703,005043,361349,32.049295,-119.166778,16.006,33.267,0.629,0.709
20050703,005114,361380,32.048707,-119.168288,16.003,33.270,0.629,0.707
20050703,005143,361408,32.048128,-119.169745,15.970,33.300,0.624,0.698
20050703,005213,361439,32.047502,-119.171230,15.931,33.333,0.580,0.630
20050703,005243,361469,32.046867,-119.172715,15.896,33.347,0.613,0.680
20050703,005313,361499,32.046258,-119.174220,15.849,33.362,0.646,0.731
20050703,005343,361529,32.045618,-119.175725,15.818,33.359,0.711,0.835
20050703,005413,361558,32.044983,-119.177220,15.812,33.349,0.738,0.878
20050703,005443,361588,32.044313,-119.178703,15.807,33.345,0.749,0.896
20050703,005513,361619,32.043575,-119.180145,15.807,33.341,0.760,0.915
20050703,005544,361649,32.042763,-119.181542,15.822,33.332,0.793,0.968
20050703,005614,361679,32.041950,-119.182947,15.835,33.334,0.804,0.985
20050703,005644,361710,32.041142,-119.184375,15.840,33.336,0.842,1.050
20050703,005713,361738,32.040325,-119.185783,15.858,33.327,0.869,1.097
20050703,005743,361768,32.039515,-119.187193,15.868,33.331,0.885,1.127
20050703,005813,361799,32.038697,-119.188583,15.870,33.333,0.874,1.108
20050703,005843,361829,32.037900,-119.189975,15.871,33.335,0.869,1.100
20050703,005914,361860,32.037102,-119.191370,15.868,33.335,0.874,1.110
20050703,005943,361889,32.036292,-119.192753,15.867,33.335,0.880,1.118
20050703,010014,361920,32.035505,-119.194158,15.865,33.333,0.874,1.106
20050703,010043,361949,32.034735,-119.195508,15.859,33.334,0.907,1.164
20050703,010114,361979,32.033928,-119.196915,15.857,33.332,0.891,1.134
20050703,010143,362009,32.033128,-119.198327,15.858,33.330,0.885,1.124
20050703,010213,362039,32.032320,-119.199732,15.860,33.328,0.907,1.163
20050703,010243,362068,32.031522,-119.201147,15.855,33.335,0.896,1.143
20050703,010313,362098,32.030715,-119.202547,15.848,33.345,0.896,1.144
20050703,010343,362129,32.029913,-119.203947,15.841,33.344,0.891,1.136
20050703,010414,362159,32.029085,-119.205400,15.852,33.340,0.885,1.126
20050703,010443,362189,32.028305,-119.206748,15.862,33.344,0.874,1.103
20050703,010514,362220,32.027398,-119.208123,15.873,33.352,0.820,1.005
20050703,010543,362248,32.026527,-119.209383,15.870,33.366,0.766,0.911
20050703,010613,362278,32.025623,-119.210683,15.829,33.403,0.755,0.892
20050703,010644,362309,32.024727,-119.211985,15.758,33.425,0.815,0.994
20050703,010714,362339,32.023805,-119.213355,15.714,33.400,0.787,0.948
20050703,010743,362369,32.022942,-119.214640,15.707,33.374,0.777,0.930
20050703,010814,362400,32.022018,-119.216025,15.702,33.365,0.706,0.812
20050703,010843,362428,32.021217,-119.217370,15.689,33.362,0.738,0.866
20050703,010914,362460,32.020338,-119.218793,15.684,33.353,0.766,0.913
20050703,010943,362489,32.019537,-119.220128,15.684,33.351,0.831,1.025
20050703,011014,362519,32.018678,-119.221582,15.670,33.358,0.966,1.269
20050703,011043,362549,32.017883,-119.222937,15.654,33.360,1.009,1.348
20050703,011114,362580,32.017023,-119.224358,15.651,33.350,1.085,1.495
20050703,011143,362608,32.016218,-119.225697,15.660,33.343,1.063,1.454
20050703,011214,362640,32.015490,-119.227198,15.667,33.343,1.042,1.414
20050703,011244,362669,32.014797,-119.228603,15.660,33.355,0.988,1.311
20050703,011314,362700,32.014060,-119.230100,15.638,33.369,1.004,1.340
20050703,011344,362730,32.013543,-119.231097,15.623,33.364,1.026,1.379
20050703,011414,362760,32.013230,-119.231748,15.614,33.357,1.069,1.462
20050703,011444,362790,32.013080,-119.232218,15.636,33.336,1.037,1.400
20050703,011514,362819,32.013048,-119.232577,15.674,33.322,0.988,1.311
20050703,011544,362849,32.013083,-119.232830,15.702,33.274,0.972,1.283
20050703,011614,362880,32.013120,-119.232998,15.718,33.227,1.015,1.369
20050703,011644,362910,32.013128,-119.233120,15.724,33.233,0.983,1.308
20050703,011714,362940,32.013098,-119.233230,15.731,33.252,1.004,1.345
20050703,011744,362970,32.013058,-119.233340,15.731,33.277,0.972,1.281
20050703,011814,362999,32.013012,-119.233450,15.721,33.305,0.993,1.322
20050703,011844,363029,32.012988,-119.233552,15.719,33.316,0.999,1.332
20050703,011914,363060,32.012985,-119.233628,15.722,33.319,0.928,1.201
20050703,011944,363090,32.012992,-119.233673,15.718,33.332,0.983,1.300
20050703,012014,363120,32.012995,-119.233698,15.716,33.351,0.972,1.278
20050703,012045,363151,32.012973,-119.233720,15.716,33.353,0.999,1.330
20050703,012114,363179,32.012943,-119.233738,15.719,33.357,1.015,1.364
20050703,012145,363211,32.012895,-119.233793,15.713,33.369,1.031,1.402
20050703,012215,363240,32.012847,-119.233863,15.707,33.369,1.015,1.376
20050703,012245,363270,32.012802,-119.233920,15.714,33.365,1.015,1.378
20050703,012315,363301,32.012748,-119.233958,15.716,33.371,1.020,1.384
20050703,012345,363331,32.012682,-119.233970,15.709,33.380,1.009,1.358
20050703,012415,363361,32.012608,-119.233967,15.714,33.378,1.053,1.441
20050703,012445,363391,32.012515,-119.233953,15.716,33.380,1.015,1.369
20050703,012515,363420,32.012418,-119.233958,15.716,33.381,1.037,1.414
20050703,012545,363450,32.012320,-119.233983,15.720,33.381,1.020,1.382
20050703,012615,363481,32.012212,-119.234037,15.718,33.386,1.063,1.460
20050703,012645,363511,32.012117,-119.234088,15.714,33.388,1.015,1.361
20050703,012715,363541,32.012038,-119.234155,15.712,33.386,1.042,1.412
20050703,012745,363570,32.011982,-119.234207,15.712,33.385,1.020,1.372
20050703,012815,363600,32.011957,-119.234248,15.714,33.384,1.031,1.395
20050703,012845,363631,32.011940,-119.234292,15.710,33.387,1.053,1.437
20050703,012915,363661,32.011932,-119.234332,15.713,33.383,1.020,1.375
20050703,012945,363691,32.011913,-119.234382,15.716,33.386,1.074,1.482
20050703,013015,363721,32.011880,-119.234433,15.717,33.387,1.026,1.387
20050703,013045,363750,32.011823,-119.234503,15.719,33.388,1.042,1.415
20050703,013115,363780,32.011760,-119.234580,15.714,33.391,1.009,1.348
20050703,013145,363811,32.011675,-119.234662,15.713,33.391,1.015,1.354
20050703,013215,363841,32.011603,-119.234745,15.714,33.389,1.053,1.424
20050703,013246,363872,32.011542,-119.234823,15.711,33.392,1.063,1.443
20050703,013315,363901,32.011503,-119.234895,15.707,33.393,1.026,1.369
20050703,013345,363930,32.011483,-119.234957,15.709,33.392,1.009,1.336
20050703,013415,363961,32.011472,-119.235012,15.709,33.393,1.009,1.334
20050703,013445,363991,32.011455,-119.235078,15.707,33.395,1.004,1.322
20050703,013515,364021,32.011425,-119.235157,15.703,33.398,1.020,1.352
20050703,013545,364051,32.011385,-119.235252,15.700,33.399,0.983,1.281
20050703,013615,364080,32.011323,-119.235350,15.696,33.398,1.004,1.320
20050703,013645,364110,32.011272,-119.235440,15.695,33.395,1.047,1.400
20050703,013715,364141,32.011240,-119.235520,15.695,33.397,1.004,1.318
20050703,013745,364171,32.011223,-119.235593,15.689,33.399,0.988,1.288
20050703,013815,364201,32.011212,-119.235662,15.687,33.400,1.009,1.327
20050703,013845,364231,32.011190,-119.235742,15.684,33.396,1.026,1.357
20050703,013915,364260,32.011165,-119.235835,15.681,33.399,1.015,1.335
20050703,013946,364292,32.011122,-119.235940,15.679,33.399,1.015,1.334
20050703,014015,364321,32.011077,-119.236048,15.675,33.400,1.004,1.313
20050703,014045,364351,32.011038,-119.236155,15.667,33.407,0.993,1.293
20050703,014115,364381,32.010993,-119.236265,15.660,33.408,1.026,1.352
20050703,014145,364410,32.010962,-119.236363,15.654,33.408,1.009,1.322
20050703,014215,364440,32.010933,-119.236463,15.651,33.409,1.037,1.373
20050703,014245,364471,32.010905,-119.236568,15.647,33.412,1.037,1.373
20050703,014315,364501,32.010863,-119.236680,15.647,33.411,1.026,1.352
20050703,014345,364531,32.010820,-119.236778,15.648,33.410,1.042,1.385
20050703,014415,364561,32.010768,-119.236883,15.650,33.412,1.053,1.407
20050703,014445,364590,32.010708,-119.236990,15.644,33.417,1.047,1.396
20050703,014515,364620,32.010648,-119.237095,15.644,33.413,1.063,1.423
20050703,014545,364651,32.010598,-119.237202,15.641,33.417,1.069,1.432
20050703,014616,364681,32.010548,-119.237298,15.642,33.416,1.090,1.471
20050703,014645,364711,32.010520,-119.237387,15.638,33.420,1.058,1.407
20050703,014715,364741,32.010503,-119.237467,15.635,33.421,1.031,1.354
20050703,014745,364770,32.010472,-119.237543,15.627,33.425,1.026,1.343
20050703,014815,364800,32.010440,-119.237638,15.620,33.427,1.020,1.331
20050703,014845,364831,32.010392,-119.237738,15.615,33.427,1.015,1.319
20050703,014915,364861,32.010350,-119.237843,15.606,33.433,0.972,1.239
20050703,014945,364891,32.010315,-119.237947,15.597,33.438,0.999,1.287
20050703,015015,364920,32.010293,-119.238043,15.577,33.446,0.939,1.180
20050703,015045,364950,32.010278,-119.238137,15.541,33.460,0.934,1.170
20050703,015115,364981,32.010242,-119.238237,15.504,33.466,0.896,1.102
20050703,015145,365011,32.010198,-119.238335,15.471,33.468,0.869,1.054
20050703,015215,365041,32.010133,-119.238450,15.452,33.462,0.928,1.157
20050703,015246,365072,32.010065,-119.238555,15.451,33.450,0.831,0.989
20050703,015315,365100,32.009992,-119.238662,15.464,33.449,0.640,0.685
20050703,015345,365130,32.009928,-119.238763,15.464,33.460,0.635,0.676
20050703,015415,365161,32.009880,-119.238863,15.464,33.465,0.624,0.659
20050703,015446,365191,32.009840,-119.238955,15.464,33.467,0.662,0.716
20050703,015515,365221,32.009792,-119.239055,15.461,33.470,0.629,0.665
20050703,015545,365251,32.009737,-119.239162,15.457,33.473,0.613,0.640
20050703,015615,365280,32.009682,-119.239265,15.454,33.472,0.624,0.655
20050703,015645,365311,32.009608,-119.239378,15.452,33.473,0.613,0.638
20050703,015715,365341,32.009543,-119.239488,15.448,33.475,0.618,0.646
20050703,015745,365371,32.009492,-119.239590,15.442,33.475,0.618,0.646
20050703,015815,365401,32.009462,-119.239675,15.436,33.474,0.667,0.720
20050703,015845,365430,32.009422,-119.239755,15.433,33.473,0.629,0.662
20050703,015915,365460,32.009373,-119.239838,15.430,33.472,0.624,0.654
20050703,015945,365491,32.009302,-119.239937,15.428,33.470,0.629,0.661
20050703,020015,365521,32.009228,-119.240042,15.429,33.470,0.574,0.581
20050703,020045,365551,32.009150,-119.240138,15.431,33.469,0.558,0.558
20050703,020115,365581,32.009073,-119.240235,15.429,33.471,0.563,0.566
20050703,020145,365610,32.009010,-119.240327,15.423,33.476,0.563,0.567
20050703,020215,365640,32.008952,-119.240408,15.417,33.477,0.580,0.591
20050703,020245,365671,32.008903,-119.240475,15.411,33.479,0.558,0.561
20050703,020315,365701,32.008852,-119.240540,15.409,33.475,0.585,0.602
20050703,020346,365732,32.008790,-119.240615,15.411,33.472,0.569,0.579
20050703,020415,365760,32.008723,-119.240695,15.409,33.473,0.558,0.565
20050703,020445,365790,32.008650,-119.240780,15.409,33.472,0.558,0.564
20050703,020515,365821,32.008567,-119.240862,15.407,33.473,0.574,0.585
20050703,020545,365851,32.008498,-119.240945,15.411,33.470,0.607,0.632
20050703,020615,365881,32.008445,-119.241017,15.413,33.470,0.618,0.647
20050703,020645,365911,32.008428,-119.241055,15.415,33.470,0.574,0.584
20050703,020715,365940,32.008417,-119.241085,15.415,33.471,0.624,0.656
20050703,020745,365970,32.008403,-119.241112,15.413,33.473,0.635,0.671
20050703,020815,366001,32.008393,-119.241137,15.412,33.473,0.624,0.654
20050703,020845,366031,32.008347,-119.241192,15.409,33.474,0.640,0.677
20050703,020915,366061,32.008265,-119.241253,15.407,33.474,0.662,0.709
20050703,020945,366091,32.008153,-119.241327,15.405,33.476,0.651,0.693
20050703,021015,366120,32.008013,-119.241398,15.404,33.476,0.651,0.691
20050703,021045,366150,32.007857,-119.241472,15.411,33.473,0.667,0.716
20050703,021115,366181,32.007723,-119.241555,15.421,33.475,0.662,0.707
20050703,021145,366211,32.007595,-119.241623,15.433,33.476,0.728,0.808
20050703,021215,366241,32.007492,-119.241695,15.452,33.482,0.700,0.766
20050703,021245,366270,32.007398,-119.241765,15.454,33.492,0.689,0.750
20050703,021315,366300,32.007342,-119.241812,15.464,33.491,0.689,0.751
20050703,021345,366331,32.007297,-119.241845,15.486,33.492,0.678,0.733
20050703,021415,366361,32.007270,-119.241857,15.491,33.503,0.667,0.714
20050703,021445,366391,32.007255,-119.241852,15.490,33.511,0.678,0.730
20050703,021515,366421,32.007253,-119.241823,15.494,33.510,0.678,0.730
20050703,021545,366450,32.007258,-119.241797,15.497,33.512,0.678,0.729
20050703,021615,366480,32.007257,-119.241772,15.498,33.516,0.684,0.737
20050703,021645,366511,32.007240,-119.241767,15.497,33.518,0.678,0.728
20050703,021715,366541,32.007172,-119.241777,15.497,33.518,0.673,0.720
20050703,021745,366571,32.007055,-119.241803,15.505,33.515,0.695,0.755
20050703,021815,366601,32.006905,-119.241843,15.509,33.516,0.706,0.772
20050703,021845,366630,32.006735,-119.241883,15.508,33.519,0.678,0.730
20050703,021915,366661,32.006558,-119.241933,15.506,33.520,0.717,0.787
20050703,021946,366691,32.006378,-119.241990,15.500,33.523,0.695,0.753
20050703,022015,366721,32.006208,-119.242053,15.499,33.522,0.738,0.819
20050703,022045,366751,32.006073,-119.242112,15.497,33.522,0.717,0.784
20050703,022115,366780,32.005935,-119.242187,15.495,33.521,0.728,0.800
20050703,022145,366810,32.005830,-119.242253,15.491,33.523,0.700,0.758
20050703,022215,366841,32.005757,-119.242310,15.491,33.520,0.777,0.878
20050703,022246,366871,32.005697,-119.242360,15.490,33.518,0.738,0.818
20050703,022315,366901,32.005645,-119.242397,15.491,33.517,0.728,0.800
20050703,022346,366932,32.005578,-119.242425,15.490,33.518,0.717,0.783
20050703,022415,366960,32.005487,-119.242437,15.492,33.521,0.733,0.807
20050703,022445,366990,32.005365,-119.242440,15.493,33.515,0.733,0.806
20050703,022515,367021,32.005220,-119.242438,15.489,33.520,0.689,0.739
20050703,022545,367051,32.005025,-119.242443,15.487,33.518,0.700,0.755
20050703,022615,367081,32.004837,-119.242462,15.493,33.515,0.728,0.796
20050703,022646,367112,32.004638,-119.242495,15.492,33.519,0.700,0.753
20050703,022715,367140,32.004427,-119.242528,15.488,33.518,0.711,0.769
20050703,022745,367171,32.004237,-119.242575,15.490,33.516,0.711,0.769
20050703,022815,367201,32.004065,-119.242623,15.492,33.515,0.706,0.760
20050703,022845,367231,32.003925,-119.242753,15.492,33.512,0.782,0.878
20050703,022915,367261,32.003788,-119.242972,15.494,33.510,0.766,0.852
20050703,022946,367292,32.003663,-119.243178,15.495,33.511,0.777,0.869
20050703,023015,367320,32.003527,-119.243338,15.494,33.515,0.755,0.835
20050703,023045,367351,32.003382,-119.243482,15.492,33.512,0.787,0.887
20050703,023115,367381,32.003240,-119.243608,15.491,33.512,0.804,0.913
20050703,023145,367411,32.003075,-119.243735,15.492,33.512,0.804,0.913
20050703,023215,367441,32.002917,-119.243857,15.495,33.512,0.793,0.895
20050703,023245,367470,32.002762,-119.243973,15.496,33.514,0.798,0.904
20050703,023315,367500,32.002592,-119.244083,15.496,33.515,0.782,0.877
20050703,023345,367531,32.002428,-119.244195,15.493,33.519,0.738,0.808
20050703,023415,367561,32.002270,-119.244305,15.488,33.524,0.700,0.749
20050703,023445,367591,32.002127,-119.244438,15.481,33.528,0.667,0.700
20050703,023515,367620,32.001992,-119.244588,15.489,33.515,0.651,0.675
20050703,023545,367650,32.001835,-119.244743,15.502,33.515,0.640,0.659
20050703,023616,367682,32.001695,-119.244893,15.507,33.515,0.656,0.682
20050703,023645,367711,32.001550,-119.245023,15.514,33.520,0.646,0.666
20050703,023715,367741,32.001413,-119.245148,15.509,33.523,0.662,0.689
20050703,023746,367772,32.001272,-119.245275,15.509,33.524,0.613,0.618
20050703,023815,367800,32.001122,-119.245412,15.499,33.524,0.613,0.617
20050703,023845,367830,32.000987,-119.245555,15.497,33.521,0.580,0.571
20050703,023915,367861,32.000830,-119.245693,15.497,33.515,0.602,0.601
20050703,023946,367891,32.000672,-119.245825,15.509,33.509,0.618,0.624
20050703,024015,367921,32.000495,-119.245958,15.523,33.507,0.596,0.593
20050703,024046,367952,32.000353,-119.246070,15.533,33.510,0.618,0.624
20050703,024115,367980,32.000217,-119.246177,15.544,33.510,0.613,0.616
20050703,024146,368012,32.000055,-119.246287,15.561,33.509,0.591,0.585
20050703,024215,368041,31.999890,-119.246402,15.581,33.511,0.558,0.539
20050703,024245,368071,31.999725,-119.246517,15.591,33.518,0.618,0.623
20050703,024315,368101,31.999570,-119.246627,15.602,33.522,0.596,0.592
20050703,024345,368130,31.999388,-119.246732,15.613,33.530,0.580,0.569
20050703,024416,368162,31.999208,-119.246840,15.621,33.531,0.585,0.576
20050703,024445,368191,31.999026,-119.246933,15.617,33.538,0.613,0.614
20050703,024515,368221,31.998866,-119.247025,15.611,33.540,0.574,0.561
20050703,024546,368251,31.998708,-119.247150,15.600,33.545,0.580,0.568
20050703,024615,368281,31.998568,-119.247323,15.584,33.545,0.613,0.614